IRIDIUM 106 1 41917U 17003A 26248.53858603 -.00000136 00000+0 -55463-4 0 9991 2 41917 86.3924 54.9347 0002022 81.1240 279.0184 14.34217721504721 IRIDIUM 103 1 41918U 17003B 26248.52590133 -.00000076 00000+0 -34381-4 0 9991 2 41918 86.3924 54.8396 0002226 91.2230 268.9221 14.34217666504741 IRIDIUM 109 1 41919U 17003C 26248.53224640 -.00000082 00000+0 -36400-4 0 9991 2 41919 86.3926 54.8978 0002079 90.5322 269.6113 14.34217756504715 IRIDIUM 102 1 41920U 17003D 26248.50053550 -.00000107 00000+0 -45185-4 0 9998 2 41920 86.3924 54.8329 0001988 89.6377 270.5047 14.34217129504791 IRIDIUM 105 1 41921U 17003E 26248.45913486 .00000163 00000+0 51072-4 0 9998 2 41921 86.3991 23.2956 0002195 99.5417 260.6027 14.34217070506647 IRIDIUM 104 1 41922U 17003F 26248.51323600 -.00000084 00000+0 -37031-4 0 9992 2 41922 86.3925 54.8713 0002225 96.9790 263.1659 14.34216056504780 IRIDIUM 114 1 41923U 17003G 26248.51956226 -.00000055 00000+0 -26654-4 0 9996 2 41923 86.3925 54.8517 0002141 91.7681 268.3760 14.34217269504767 IRIDIUM 108 1 41924U 17003H 26248.61761734 .00000077 00000+0 20484-4 0 9993 2 41924 86.3986 23.1144 0002092 94.9220 265.2215 14.34216581506634 IRIDIUM 112 1 41925U 17003J 26248.50687872 -.00000202 00000+0 -79061-4 0 9999 2 41925 86.3921 54.6952 0002054 91.6130 268.5301 14.34216518504788 IRIDIUM 111 1 41926U 17003K 26248.56395746 -.00000090 00000+0 -39280-4 0 9996 2 41926 86.3923 54.7438 0002076 89.7319 270.4115 14.34217641504774 IRIDIUM 113 1 42803U 17039A 26248.54392577 .00000148 00000+0 45828-4 0 9994 2 42803 86.3936 288.5941 0002184 95.7305 264.4140 14.34218115482707 IRIDIUM 123 1 42804U 17039B 26248.58540056 .00000039 00000+0 70270-5 0 9995 2 42804 86.3997 320.0495 0002303 91.8343 268.3117 14.34217369481473 IRIDIUM 120 1 42805U 17039C 26248.53758297 .00000129 00000+0 39153-4 0 9993 2 42805 86.3926 288.3688 0002194 90.0168 270.1280 14.34217966482690 IRIDIUM 115 1 42806U 17039D 26248.40368660 .00000158 00000+0 41049-4 0 9990 2 42806 86.4464 288.5647 0002442 89.1203 271.0277 14.43278351485831 IRIDIUM 118 1 42807U 17039E 26248.61711028 .00000111 00000+0 32749-4 0 9990 2 42807 86.3996 320.0339 0002185 95.9655 264.1790 14.34215917481479 IRIDIUM 117 1 42808U 17039F 26248.63614040 .00000084 00000+0 22876-4 0 9998 2 42808 86.3995 319.9829 0002256 93.5222 266.6232 14.34216415481509 IRIDIUM 126 1 42809U 17039G 26248.59174133 .00000120 00000+0 35903-4 0 9994 2 42809 86.3997 320.0539 0002318 95.7268 264.4192 14.34216211481477 IRIDIUM 124 1 42810U 17039H 26248.47616348 .00000115 00000+0 28247-4 0 9999 2 42810 86.4430 256.7745 0002415 89.5622 270.5856 14.43280736486696 IRIDIUM 128 1 42811U 17039J 26248.37317555 .00000310 00000+0 10371-3 0 9992 2 42811 86.4025 351.6379 0002122 92.2016 267.9423 14.34216798481476 IRIDIUM 121 1 42812U 17039K 26248.61076803 .00000052 00000+0 11646-4 0 9998 2 42812 86.3998 320.0742 0002172 94.2560 265.8884 14.34216122481356 IRIDIUM 133 1 42955U 17061A 26248.54442674 .00000035 00000+0 55175-5 0 9993 2 42955 86.4027 351.6861 0002163 93.7811 266.3632 14.34216575466298 IRIDIUM 100 1 42956U 17061B 26248.32877756 .00000027 00000+0 25706-5 0 9991 2 42956 86.4025 351.6927 0002150 94.2358 265.9083 14.34216477466261 IRIDIUM 122 1 42957U 17061C 26248.57613408 .00000142 00000+0 43536-4 0 9999 2 42957 86.4026 351.5902 0002242 94.2166 265.9286 14.34215737466302 IRIDIUM 129 1 42958U 17061D 26248.53173994 -.00000046 00000+0 -23542-4 0 9997 2 42958 86.4025 351.6766 0002115 100.8846 259.2588 14.34216232466312 IRIDIUM 119 1 42959U 17061E 26248.36048982 .00000047 00000+0 97673-5 0 9993 2 42959 86.4027 351.7442 0002254 95.4581 264.6872 14.34215628466309 IRIDIUM 107 1 42960U 17061F 26248.51905640 .00000031 00000+0 41668-5 0 9991 2 42960 86.4028 351.6996 0002331 89.9952 270.1511 14.34216054466330 IRIDIUM 132 1 42961U 17061G 26248.31609322 -.00000089 00000+0 -38857-4 0 9998 2 42961 86.4024 351.7633 0002067 95.0465 265.0966 14.34216327466306 IRIDIUM 136 1 42962U 17061H 26248.55711185 .00000139 00000+0 42511-4 0 9992 2 42962 86.4027 351.6698 0002132 94.4504 265.6935 14.34216681466350 IRIDIUM 139 1 42963U 17061J 26248.35414709 -.00000086 00000+0 -37947-4 0 9993 2 42963 86.4026 351.8177 0002047 93.4162 266.7268 14.34216019466332 IRIDIUM 125 1 42964U 17061K 26248.55077047 .00000000 00000+0 -69439-5 0 9993 2 42964 86.4028 351.7983 0002576 94.8372 265.3118 14.34216098466374 IRIDIUM 135 1 43070U 17083A 26248.17605617 .00000152 00000+0 47131-4 0 9995 2 43070 86.3931 288.5797 0002257 93.4198 266.7256 14.34217787455611 IRIDIUM 138 1 43071U 17083B 26248.48050020 .00000121 00000+0 36079-4 0 9997 2 43071 86.3944 288.1600 0002388 95.1454 265.0014 14.34218139455643 IRIDIUM 116 1 43072U 17083C 26248.16971332 -.00000027 00000+0 -16881-4 0 9997 2 43072 86.3930 288.5671 0002009 86.2033 273.9392 14.34217150455633 IRIDIUM 130 1 43073U 17083D 26248.55661126 .00000015 00000+0 -15746-5 0 9994 2 43073 86.3940 288.6888 0002286 87.4808 272.6650 14.34217575455630 IRIDIUM 151 1 43074U 17083E 26248.39170318 .00000050 00000+0 10933-4 0 9995 2 43074 86.3932 288.5340 0002210 91.6966 268.4483 14.34217913455636 IRIDIUM 134 1 43075U 17083F 26248.22045375 .00000020 00000+0 -46221-7 0 9992 2 43075 86.3934 288.6146 0002184 91.4456 268.6990 14.34217565455577 IRIDIUM 137 1 43076U 17083G 26248.16336926 .00000031 00000+0 38993-5 0 9997 2 43076 86.3936 288.7333 0001913 92.0490 268.0925 14.34217799455631 IRIDIUM 141 1 43077U 17083H 26248.36633370 .00000114 00000+0 33801-4 0 9997 2 43077 86.3932 288.4743 0002263 94.1684 265.9770 14.34217530455667 IRIDIUM 153 1 43078U 17083J 26248.52781343 .00000031 00000+0 41111-5 0 9992 2 43078 86.3908 256.8683 0002429 92.2375 267.9099 14.34218622456797 IRIDIUM 131 1 43079U 17083K 26248.07457456 .00000027 00000+0 24714-5 0 9993 2 43079 86.3936 288.7873 0002234 94.7432 265.4019 14.34217088455552 IRIDIUM 144 1 43249U 18030A 26248.53415797 -.00000165 00000+0 -65852-4 0 9990 2 43249 86.3907 256.7928 0002105 87.9364 272.2073 14.34216152441653 IRIDIUM 149 1 43250U 18030B 26248.54050056 -.00000041 00000+0 -21675-4 0 9994 2 43250 86.3906 256.7563 0002236 91.6673 268.4779 14.34217851441678 IRIDIUM 157 1 43251U 18030C 26248.55952555 -.00000028 00000+0 -17228-4 0 9995 2 43251 86.3908 256.8033 0002201 90.7125 269.4323 14.34218363441651 IRIDIUM 140 1 43252U 18030D 26248.57855381 -.00000037 00000+0 -20177-4 0 9994 2 43252 86.3908 256.8078 0002208 90.1924 269.9525 14.34218290441714 IRIDIUM 145 1 43253U 18030E 26248.56586936 -.00000082 00000+0 -36208-4 0 9993 2 43253 86.3908 256.7852 0002053 83.3900 276.7530 14.34217907441648 IRIDIUM 146 1 43254U 18030F 26248.54683987 .00000124 00000+0 37338-4 0 9996 2 43254 86.3915 256.8042 0002296 81.8255 278.3201 14.34214559441658 IRIDIUM 148 1 43255U 18030G 26248.51512957 -.00000014 00000+0 -12049-4 0 9994 2 43255 86.3908 256.8627 0002100 91.9446 268.1991 14.34216985441689 IRIDIUM 142 1 43256U 18030H 26248.55318291 -.00000087 00000+0 -37977-4 0 9991 2 43256 86.3905 256.7328 0002072 87.3058 272.8375 14.34218132441651 IRIDIUM 150 1 43257U 18030J 26248.52147167 -.00000007 00000+0 -94748-5 0 9993 2 43257 86.3908 256.8650 0002188 88.4386 271.7061 14.34218179441671 IRIDIUM 143 1 43258U 18030K 26248.57221047 -.00000006 00000+0 -92357-5 0 9992 2 43258 86.3911 256.9395 0002177 87.4680 272.6765 14.34217334441614 IRIDIUM 161 1 43478U 18047C 26248.45410351 .00000066 00000+0 13700-4 0 9997 2 43478 86.4446 54.8794 0002190 95.6556 264.4895 14.43280139436719 IRIDIUM 152 1 43479U 18047D 26248.54493378 -.00000084 00000+0 -36991-4 0 9997 2 43479 86.3920 54.7037 0002065 91.3048 268.8384 14.34217297434001 IRIDIUM 147 1 43480U 18047E 26248.55127427 -.00000075 00000+0 -33720-4 0 9996 2 43480 86.3922 54.7076 0001959 87.4946 272.6474 14.34217377434004 IRIDIUM 110 1 43481U 18047F 26248.55761791 -.00000110 00000+0 -46370-4 0 9990 2 43481 86.3924 54.7989 0002117 97.8396 262.3040 14.34217611433994 IRIDIUM 162 1 43482U 18047G 26248.51713278 .00000073 00000+0 15828-4 0 9994 2 43482 86.4445 54.7432 0002208 89.1879 270.9575 14.43280153436710 IRIDIUM 160 1 43569U 18061A 26248.43367959 .00000054 00000+0 12318-4 0 9998 2 43569 86.3988 23.2312 0002113 94.1011 266.0426 14.34216234424878 IRIDIUM 166 1 43570U 18061B 26248.45904881 -.00000033 00000+0 -18907-4 0 9992 2 43570 86.3986 23.1704 0001993 91.4833 268.6591 14.34219159424903 IRIDIUM 158 1 43571U 18061C 26248.35757150 .00000039 00000+0 68345-5 0 9993 2 43571 86.3987 23.2224 0002210 93.3848 266.7601 14.34216073424850 IRIDIUM 165 1 43572U 18061D 26248.45270993 .00000000 00000+0 -71606-5 0 9993 2 43572 86.3988 23.2309 0001984 91.2634 268.8789 14.34216194424891 IRIDIUM 155 1 43573U 18061E 26248.62396075 .00000157 00000+0 49155-4 0 9998 2 43573 86.3982 23.0245 0002077 90.8653 269.2781 14.34216825424880 IRIDIUM 154 1 43574U 18061F 26248.46539514 -.00000083 00000+0 -36734-4 0 9997 2 43574 86.3989 23.2280 0002088 91.3135 268.8300 14.34217586424913 IRIDIUM 163 1 43575U 18061G 26248.44636636 -.00000140 00000+0 -57157-4 0 9995 2 43575 86.3985 23.1490 0002047 94.0879 266.0551 14.34215841424888 IRIDIUM 156 1 43576U 18061H 26248.42098954 .00000164 00000+0 51371-4 0 9995 2 43576 86.3986 23.1668 0002206 89.7508 270.3941 14.34216125424870 IRIDIUM 164 1 43577U 18061J 26248.40196908 -.00000120 00000+0 -49740-4 0 9993 2 43577 86.3986 23.2165 0001910 91.1470 268.9944 14.34216222424919 IRIDIUM 159 1 43578U 18061K 26248.44002495 .00000004 00000+0 -57933-5 0 9999 2 43578 86.3984 23.1359 0002065 95.4043 264.7388 14.34216518424887 IRIDIUM 180 1 43922U 19002A 26248.29998855 .00000118 00000+0 34907-4 0 9995 2 43922 86.3998 320.1283 0002206 96.4025 263.7422 14.34217404400471 IRIDIUM 176 1 43923U 19002B 26248.63274922 .00000350 00000+0 51540-4 0 9996 2 43923 86.6117 319.9219 0002386 94.5388 265.6102 14.72255332411082 IRIDIUM 168 1 43924U 19002C 26248.57271197 .00000129 00000+0 39174-4 0 9994 2 43924 86.3999 320.0940 0002205 96.2243 263.9204 14.34219932400492 IRIDIUM 173 1 43925U 19002D 26248.62979761 .00000089 00000+0 24714-4 0 9992 2 43925 86.3995 319.9556 0002243 94.8531 265.2921 14.34216371400489 IRIDIUM 169 1 43926U 19002E 26248.31093810 .00000147 00000+0 41695-4 0 9993 2 43926 86.4282 351.7076 0002551 88.2549 271.8941 14.38607442401741 IRIDIUM 172 1 43927U 19002F 26248.62345668 .00000139 00000+0 42710-4 0 9999 2 43927 86.3995 319.9666 0002217 95.8030 264.3419 14.34216331400498 IRIDIUM 175 1 43928U 19002G 26248.47212775 .00000108 00000+0 25926-4 0 9991 2 43928 86.4460 256.9475 0002382 3.5460 356.5758 14.43643919410566 IRIDIUM 171 1 43929U 19002H 26248.60443042 .00000057 00000+0 13469-4 0 9992 2 43929 86.4005 320.2896 0002177 92.6673 267.4772 14.34216746400481 IRIDIUM 170 1 43930U 19002J 26248.23113203 .00000369 00000+0 54653-4 0 9992 2 43930 86.6116 320.0914 0002427 95.8647 264.2846 14.72249355411035 IRIDIUM 167 1 43931U 19002K 26248.59808242 .00000104 00000+0 30166-4 0 9996 2 43931 86.3996 320.0002 0002193 88.6214 271.5233 14.34216444400486 IRIDIUM 181 1 56726U 23068S 26248.45921843 .00000194 00000+0 51581-4 0 9990 2 56726 86.4538 23.2228 0001935 93.0210 267.1212 14.43304497174017 IRIDIUM 177 1 56727U 23068T 26245.80301371 .00000536 00000+0 67333-4 0 9997 2 56727 86.1940 291.9483 0002598 93.8466 266.3052 14.80048058177842 IRIDIUM 174 1 56728U 23068U 26248.28674225 .00000402 00000+0 59894-4 0 9999 2 56728 86.6124 320.2236 0002669 96.6832 263.4689 14.72249696177803 IRIDIUM 178 1 56729U 23068V 26248.56416696 .00000610 00000+0 77108-4 0 9996 2 56729 86.6595 351.7907 0002426 93.7588 266.3911 14.80049252178252 IRIDIUM 179 1 56730U 23068W 26248.35596351 .00000567 00000+0 71466-4 0 9994 2 56730 86.6824 1.0883 0002548 92.6640 267.4873 14.80037862178229